EZY66X EGAC-EGCC

Flight info

Callsign EZY66X
Flight time N/A
Altitude 23000
Route DUFFY L15 PEPOD Q38 MAKUX
Aircraft A320/M-SDE2E3FGHIJ1RWXYZ/LB1

Departure

Time 2026-05-05 15:39
Airport George Best Belfast City Airport (EGAC)

Arrival

Time N/A
Airport Manchester Airport (EGCC)
Time Latitude Longitude Altitude Speed Heading
2026-05-05 15:29 54.61508 -5.87150 23 ft 0 kts 155°
2026-05-05 15:34 54.61512 -5.87153 24 ft 2 kts 153°
2026-05-05 15:34 54.61527 -5.87166 22 ft 2 kts 153°
2026-05-05 15:34 54.61542 -5.87178 22 ft 2 kts 153°
2026-05-05 15:34 54.61557 -5.87190 23 ft 2 kts 185°
2026-05-05 15:35 54.61563 -5.87188 25 ft 0 kts 216°
2026-05-05 15:35 54.61541 -5.87216 22 ft 8 kts 214°
2026-05-05 15:35 54.61491 -5.87272 22 ft 8 kts 213°
2026-05-05 15:36 54.61441 -5.87331 22 ft 10 kts 217°
2026-05-05 15:36 54.61390 -5.87429 22 ft 13 kts 230°
2026-05-05 15:36 54.61308 -5.87536 22 ft 17 kts 214°
2026-05-05 15:36 54.61200 -5.87665 22 ft 21 kts 216°
2026-05-05 15:37 54.61087 -5.87815 22 ft 17 kts 248°
2026-05-05 15:37 54.61116 -5.87982 22 ft 12 kts 307°
2026-05-05 15:37 54.61184 -5.87999 23 ft 11 kts 34°
2026-05-05 15:37 54.61199 -5.87982 23 ft 0 kts 34°
2026-05-05 15:38 54.61276 -5.87890 21 ft 51 kts 34°
2026-05-05 15:39 54.61812 -5.87256 22 ft 132 kts 34°
2026-05-05 15:39 54.62713 -5.86155 222 ft 175 kts 36°
2026-05-05 15:39 54.63765 -5.84824 729 ft 199 kts 35°
2026-05-05 15:39 54.64910 -5.83305 1404 ft 212 kts 38°
2026-05-05 15:40 54.65897 -5.81447 2330 ft 212 kts 65°
2026-05-05 15:40 54.66092 -5.78916 3048 ft 223 kts 102°
2026-05-05 15:40 54.65376 -5.76486 3518 ft 240 kts 138°
2026-05-05 15:40 54.63834 -5.75145 3848 ft 261 kts 175°
2026-05-05 15:41 54.62075 -5.75698 4681 ft 261 kts 207°
2026-05-05 15:41 54.60503 -5.77330 5519 ft 266 kts 214°
2026-05-05 15:41 54.58943 -5.79110 6372 ft 270 kts 214°
2026-05-05 15:41 54.57366 -5.80912 7237 ft 274 kts 214°
2026-05-05 15:42 54.55791 -5.82715 8063 ft 277 kts 214°
2026-05-05 15:42 54.54115 -5.84395 8872 ft 281 kts 201°
2026-05-05 15:42 54.52184 -5.84915 9683 ft 286 kts 177°
2026-05-05 15:42 54.50229 -5.84200 10441 ft 291 kts 159°
2026-05-05 15:43 54.48458 -5.82471 11149 ft 299 kts 145°
2026-05-05 15:43 54.46716 -5.80341 11564 ft 315 kts 145°
2026-05-05 15:43 54.44873 -5.78119 11950 ft 332 kts 146°
2026-05-05 15:43 54.42947 -5.75814 12511 ft 341 kts 146°
2026-05-05 15:44 54.40989 -5.73474 13220 ft 345 kts 146°
2026-05-05 15:44 54.39015 -5.71118 13921 ft 348 kts 146°
2026-05-05 15:44 54.37015 -5.68732 14598 ft 351 kts 146°
2026-05-05 15:44 54.34999 -5.66324 15258 ft 355 kts 146°
2026-05-05 15:45 54.32962 -5.63893 15893 ft 358 kts 146°
2026-05-05 15:45 54.30910 -5.61446 16519 ft 362 kts 146°
2026-05-05 15:45 54.28834 -5.58966 17129 ft 365 kts 144°
2026-05-05 15:45 54.26912 -5.56100 17730 ft 369 kts 133°
2026-05-05 15:46 54.25331 -5.52699 18300 ft 372 kts 126°
2026-05-05 15:46 54.24315 -5.50259 18675 ft 375 kts 126°